Change the Weather History Date:

Wednesday, March 27, 2013

  Actual Average (KAMA) Record (KAMA)
Temperature  
Mean Temperature 58 °F 51 °F  
Max Temperature 79 °F 66 °F 94 °F (1971)
Min Temperature 36 °F 36 °F 7 °F (1931)
Degree Days  
Heating Degree Days 8 14  
Month to date heating degree days 478  
Since 1 July heating degree days 3755  
Cooling Degree Days 0 0  
Month to date cooling degree days 0  
Year to date cooling degree days 0  
Growing Degree Days 8 (Base 50)    
Moisture  
Dew Point 19 °F    
Average Humidity 26    
Maximum Humidity 50    
Minimum Humidity 8    
Precipitation  
Precipitation 0.00 in 0.05 in 1.60 in (1929)
Month to date precipitation 1.19  
Year to date precipitation 2.47  
Snow  
Snow 0.00 in 0.10 in 9.90 in (2009)
Month to date snowfall 2.6  
Since 1 July snowfall 16.6  
Snow Depth -    
Sea Level Pressure  
Sea Level Pressure 30.02 in    
Wind  
Wind Speed 14 mph (SW)    
Max Wind Speed 22 mph    
Max Gust Speed 29 mph    
Visibility 10 miles    
Events      
T = Trace of Precipitation, MM = Missing Value Source: NWS Daily Summary

Daily Weather History Graph

Daily Weather History Graph

Search for Another Location

Airport or City:

Trip Planner

Search our weather history database for the weather conditions in past years. The results will help you decide how hot, cold, wet, or windy it might be!

Date:

Astronomy

Mar. 27, 2013 Rise Set
Actual Time 7:42 AM CDT 8:06 PM CDT
Civil Twilight 7:17 AM CDT 8:32 PM CDT
Nautical Twilight 6:47 AM CDT 9:01 PM CDT
Astronomical Twilight 6:17 AM CDT 9:32 PM CDT
Moon 8:49 PM CDT 7:37 AM CDT
Length of Visible Light 13h 14m
Length of Day
12h 24m
Full, 100% of the Moon is Illuminated
Mar 27
Full
Apr 2
Last Quarter
Apr 10
New
Apr 18
First Quarter
Apr 25
Full

Hourly Weather History & Observations

Time (CDT) Temp. Windchill Dew Point Humidity Pressure Visibility Wind Dir Wind Speed Gust Speed Precip Events Conditions
12:15 AM 48.7 °F - 13.8 °F 25% 30.07 in 10.0 mi South 18.4 mph 25.3 mph N/A   Clear
12:35 AM 48.6 °F - 14.0 °F 25% 30.07 in 10.0 mi SSW 16.1 mph 23.0 mph N/A   Clear
12:55 AM 47.5 °F - 14.5 °F 27% 30.07 in 10.0 mi South 15.0 mph - N/A   Clear
1:15 AM 47.3 °F - 14.9 °F 27% 30.06 in 10.0 mi South 15.0 mph 24.2 mph N/A   Clear
1:35 AM 47.3 °F - 14.9 °F 27% 30.05 in 10.0 mi SSW 18.4 mph 25.3 mph N/A   Clear
1:55 AM 46.6 °F - 15.4 °F 29% 30.05 in 10.0 mi SSW 15.0 mph 21.9 mph N/A   Clear
2:15 AM 46.4 °F 40.7 °F 15.6 °F 29% 30.05 in 10.0 mi SSW 12.7 mph 20.7 mph N/A   Clear
2:35 AM 46.2 °F 39.8 °F 15.8 °F 30% 30.04 in 10.0 mi SSW 15.0 mph 21.9 mph N/A   Clear
2:55 AM 46.4 °F 39.8 °F 16.7 °F 31% 30.04 in 10.0 mi SSW 16.1 mph 20.7 mph N/A   Clear
3:15 AM 46.6 °F - 17.6 °F 32% 30.04 in 10.0 mi SSW 16.1 mph 27.6 mph N/A   Clear
3:35 AM 46.4 °F 39.8 °F 17.6 °F 32% 30.03 in 10.0 mi SW 16.1 mph 25.3 mph N/A   Clear
3:55 AM 46.0 °F 39.3 °F 17.6 °F 32% 30.03 in 10.0 mi SW 16.1 mph 24.2 mph N/A   Clear
4:15 AM 45.5 °F 38.6 °F 18.1 °F 34% 30.02 in 10.0 mi SW 16.1 mph - N/A   Clear
4:35 AM 44.8 °F 38.3 °F 18.3 °F 35% 30.02 in 10.0 mi SW 13.8 mph 20.7 mph N/A   Clear
4:55 AM 43.9 °F 36.2 °F 18.5 °F 36% 30.02 in 10.0 mi SW 17.3 mph 20.7 mph N/A   Clear
5:15 AM 43.2 °F 35.9 °F 19.0 °F 38% 30.01 in 10.0 mi SW 15.0 mph - N/A   Clear
5:35 AM 42.3 °F 35.1 °F 19.4 °F 40% 30.02 in 10.0 mi SW 13.8 mph - N/A   Clear
5:55 AM 41.5 °F 34.2 °F 19.4 °F 41% 30.02 in 10.0 mi SW 13.8 mph - N/A   Clear
6:15 AM 40.6 °F 34.8 °F 19.8 °F 43% 30.02 in 10.0 mi SW 9.2 mph - N/A   Clear
6:35 AM 39.6 °F 34.0 °F 19.4 °F 44% 30.02 in 10.0 mi SW 8.1 mph - N/A   Clear
6:55 AM 38.5 °F 32.1 °F 19.8 °F 47% 30.02 in 10.0 mi SW 9.2 mph - N/A   Clear
7:15 AM 36.9 °F 30.1 °F 19.9 °F 50% 30.02 in 10.0 mi SW 9.2 mph - N/A   Clear
7:35 AM 37.2 °F 29.6 °F 20.1 °F 50% 30.02 in 10.0 mi SSW 11.5 mph - N/A   Clear
7:55 AM 38.3 °F 30.5 °F 20.3 °F 48% 30.02 in 10.0 mi SW 12.7 mph - N/A   Clear
8:15 AM 39.4 °F 32.3 °F 20.3 °F 46% 30.02 in 10.0 mi SW 11.5 mph - N/A   Clear
8:35 AM 40.6 °F 34.3 °F 20.7 °F 45% 30.02 in 10.0 mi SW 10.4 mph - N/A   Clear
8:55 AM 42.3 °F 36.8 °F 20.3 °F 42% 30.03 in 10.0 mi SW 9.2 mph - N/A   Clear
9:15 AM 44.4 °F 38.6 °F 19.2 °F 37% 30.03 in 10.0 mi SW 11.5 mph - N/A   Clear
9:35 AM 46.9 °F - 19.4 °F 34% 30.02 in 10.0 mi SW 10.4 mph - N/A   Clear
9:55 AM 51.6 °F - 20.3 °F 29% 30.03 in 10.0 mi WSW 10.4 mph - N/A   Clear
10:15 AM 55.4 °F - 21.2 °F 26% 30.03 in 10.0 mi WSW 5.8 mph - N/A   Clear
10:35 AM 61.2 °F - 21.0 °F 21% 30.03 in 10.0 mi West 16.1 mph 19.6 mph N/A   Clear
10:55 AM 62.6 °F - 19.4 °F 19% 30.04 in 10.0 mi WSW 16.1 mph 20.7 mph N/A   Clear
11:15 AM 64.4 °F - 19.4 °F 18% 30.04 in 10.0 mi SW 15.0 mph 18.4 mph N/A   Clear
11:35 AM 64.4 °F - 19.2 °F 18% 30.04 in 10.0 mi WSW 13.8 mph - N/A   Clear
11:55 AM 66.7 °F - 18.1 °F 16% 30.04 in 10.0 mi WSW 15.0 mph 18.4 mph N/A   Clear
12:15 PM 71.4 °F - 18.9 °F 14% 30.04 in 10.0 mi West 16.1 mph 21.9 mph N/A   Clear
12:35 PM 73.9 °F - 17.2 °F 12% 30.03 in 10.0 mi West 21.9 mph 26.5 mph N/A   Clear
12:55 PM 75.0 °F - 16.3 °F 11% 30.02 in 10.0 mi WNW 16.1 mph 23.0 mph N/A   Clear
1:15 PM 76.1 °F - 16.0 °F 10% 30.02 in 10.0 mi West 12.7 mph 18.4 mph N/A   Clear
1:35 PM 76.8 °F - 15.4 °F 10% 30.02 in 10.0 mi WNW 15.0 mph 18.4 mph N/A   Clear
1:55 PM 76.8 °F - 15.1 °F 10% 30.01 in 10.0 mi WNW 9.2 mph 19.6 mph N/A   Clear
2:15 PM 77.0 °F - 13.1 °F 9% 30.00 in 10.0 mi WNW 13.8 mph 21.9 mph N/A   Clear
2:35 PM 77.2 °F - 13.5 °F 9% 30.00 in 10.0 mi WNW 15.0 mph 20.7 mph N/A   Clear
2:55 PM 77.4 °F - 11.5 °F 8% 29.99 in 10.0 mi NW 16.1 mph 20.7 mph N/A   Clear
3:15 PM 79.2 °F - 13.5 °F 8% 29.99 in 10.0 mi WNW 10.4 mph 28.8 mph N/A   Clear
3:35 PM 77.0 °F - 13.5 °F 9% 29.98 in 10.0 mi West 5.8 mph 23.0 mph N/A   Clear
3:55 PM 77.4 °F - 14.0 °F 9% 29.98 in 10.0 mi NW 12.7 mph 18.4 mph N/A   Clear
4:15 PM 77.4 °F - 12.4 °F 8% 29.98 in 10.0 mi West 19.6 mph - N/A   Clear
4:35 PM 76.8 °F - 11.8 °F 8% 29.98 in 10.0 mi West 10.4 mph - N/A   Clear
4:55 PM 76.5 °F - 11.7 °F 8% 29.98 in 10.0 mi WNW 10.4 mph - N/A   Clear
5:15 PM 72.7 °F - 19.0 °F 13% 29.98 in 10.0 mi East 6.9 mph - N/A   Clear
5:35 PM 72.0 °F - 19.0 °F 13% 29.98 in 10.0 mi ENE 15.0 mph - N/A   Clear
5:55 PM 71.1 °F - 18.9 °F 14% 29.99 in 10.0 mi ENE 11.5 mph - N/A   Clear
6:15 PM 70.5 °F - 19.2 °F 14% 29.99 in 10.0 mi ENE 11.5 mph - N/A   Clear
6:35 PM 69.8 °F - 19.4 °F 15% 29.99 in 10.0 mi ENE 12.7 mph - N/A   Clear
6:55 PM 68.7 °F - 19.4 °F 15% 29.99 in 10.0 mi ENE 13.8 mph 19.6 mph N/A   Clear
7:15 PM 67.5 °F - 20.8 °F 17% 29.99 in 10.0 mi East 16.1 mph - N/A   Clear
7:35 PM 67.1 °F - 21.9 °F 18% 30.00 in 10.0 mi East 12.7 mph 19.6 mph N/A   Clear
7:55 PM 64.8 °F - 22.5 °F 20% 30.00 in 10.0 mi East 15.0 mph 19.6 mph N/A   Clear
8:15 PM 62.2 °F - 23.0 °F 22% 30.00 in 10.0 mi East 15.0 mph - N/A   Clear
8:35 PM 60.3 °F - 23.7 °F 25% 30.01 in 10.0 mi East 12.7 mph - N/A   Clear
8:55 PM 58.1 °F - 23.9 °F 27% 30.02 in 10.0 mi East 12.7 mph - N/A   Clear
9:15 PM 55.8 °F - 23.9 °F 29% 30.02 in 10.0 mi East 11.5 mph - N/A   Clear
9:35 PM 55.2 °F - 24.4 °F 30% 30.02 in 10.0 mi East 11.5 mph - N/A   Clear
9:55 PM 53.8 °F - 24.4 °F 32% 30.03 in 10.0 mi ENE 9.2 mph - N/A   Clear
10:15 PM 53.1 °F - 23.9 °F 32% 30.03 in 10.0 mi East 10.4 mph - N/A   Clear
10:35 PM 50.7 °F - 24.1 °F 35% 30.04 in 10.0 mi ENE 8.1 mph - N/A   Clear
10:55 PM 48.2 °F - 24.3 °F 39% 30.04 in 10.0 mi East 8.1 mph - N/A   Clear
11:15 PM 47.3 °F - 24.1 °F 40% 30.05 in 10.0 mi NE 5.8 mph - N/A   Clear
11:35 PM 44.8 °F 42.4 °F 24.3 °F 45% 30.05 in 10.0 mi NNE 4.6 mph - N/A   Clear
11:55 PM 43.7 °F 39.7 °F 23.9 °F 46% 30.05 in 10.0 mi NNE 6.9 mph - N/A   Clear